| time (UTC) | temp F | wind direction | speed MPH | gust MPH | rain 1hr in | rain 24hr in | rain mn in | humidity % | barometer mb |
| 20260903221917 | 89 | 180 | 6.0 | 9.0 | 0.00 | 0.00 | 0.00 | 64 | 1010.3 |
| 20260903220917 | 88 | 158 | 5.0 | 7.0 | 0.00 | 0.00 | 0.00 | 66 | 1010.4 |
| 20260903215917 | 88 | 135 | 6.0 | 9.0 | 0.00 | 0.00 | 0.00 | 67 | 1010.4 |
| 20260903214916 | 87 | 135 | 4.0 | 6.0 | 0.00 | 0.00 | 0.00 | 68 | 1010.4 |
| 20260903213916 | 87 | 0 | 8.0 | 10.0 | 0.00 | 0.00 | 0.00 | 68 | 1010.6 |
| 20260903212917 | 87 | 0 | 7.0 | 10.0 | 0.00 | 0.00 | 0.00 | 69 | 1010.6 |
| 20260903211916 | 86 | 180 | 10.0 | 13.0 | 0.00 | 0.00 | 0.00 | 70 | 1010.8 |
| 20260903210916 | 86 | 158 | 6.0 | 9.0 | 0.00 | 0.00 | 0.00 | 71 | 1010.8 |
| 20260903205917 | 86 | 135 | 9.0 | 14.0 | 0.00 | 0.00 | 0.00 | 71 | 1010.9 |
| 20260903204916 | 85 | 203 | 9.0 | 13.0 | 0.00 | 0.00 | 0.00 | 72 | 1011.0 |
| 20260903203916 | 85 | 0 | 8.0 | 11.0 | 0.00 | 0.00 | 0.00 | 72 | 1011.2 |
| 20260903202917 | 85 | 135 | 9.0 | 13.0 | 0.00 | 0.00 | 0.00 | 73 | 1011.3 |
| 20260903201916 | 85 | 135 | 6.0 | 7.0 | 0.00 | 0.00 | 0.00 | 74 | 1011.5 |
| 20260903200916 | 84 | 158 | 6.0 | 10.0 | 0.00 | 0.00 | 0.00 | 75 | 1011.5 |
| 20260903195916 | 84 | 135 | 10.0 | 14.0 | 0.00 | 0.00 | 0.00 | 75 | 1011.6 |
| 20260903194916 | 84 | 135 | 10.0 | 18.0 | 0.00 | 0.00 | 0.00 | 76 | 1011.6 |
| 20260903193917 | 85 | 0 | 11.0 | 20.0 | 0.00 | 0.00 | 0.00 | 75 | 1011.7 |
| 20260903192916 | 84 | 135 | 9.0 | 12.0 | 0.00 | 0.00 | 0.00 | 75 | 1011.9 |
| 20260903191916 | 84 | 135 | 9.0 | 12.0 | 0.00 | 0.00 | 0.00 | 76 | 1012.0 |
| 20260903190916 | 84 | 135 | 5.0 | 9.0 | 0.00 | 0.00 | 0.00 | 77 | 1012.0 |
| 20260903185916 | 84 | 180 | 8.0 | 10.0 | 0.00 | 0.00 | 0.00 | 77 | 1012.2 |
| 20260903184916 | 84 | 180 | 10.0 | 14.0 | 0.00 | 0.00 | 0.00 | 78 | 1012.3 |
| 20260903183916 | 83 | 135 | 7.0 | 9.0 | 0.00 | 0.00 | 0.00 | 78 | 1012.4 |
| 20260903182917 | 83 | 135 | 11.0 | 18.0 | 0.00 | 0.00 | 0.00 | 79 | 1012.5 |
| 20260903181916 | 83 | 158 | 6.0 | 8.0 | 0.00 | 0.00 | 0.00 | 79 | 1012.6 |
| 20260903180916 | 83 | 135 | 5.0 | 9.0 | 0.00 | 0.00 | 0.00 | 79 | 1012.6 |
| 20260903175916 | 83 | 180 | 8.0 | 11.0 | 0.00 | 0.00 | 0.00 | 79 | 1012.7 |
| 20260903174916 | 83 | 158 | 9.0 | 12.0 | 0.00 | 0.00 | 0.00 | 80 | 1012.8 |
| 20260903173916 | 83 | 180 | 10.0 | 16.0 | 0.00 | 0.00 | 0.00 | 79 | 1012.8 |
| 20260903172916 | 83 | 135 | 10.0 | 15.0 | 0.00 | 0.00 | 0.00 | 80 | 1012.9 |
| 20260903171916 | 82 | 135 | 14.0 | 20.0 | 0.00 | 0.00 | 0.00 | 80 | 1012.9 |
| 20260903170916 | 83 | 135 | 11.0 | 19.0 | 0.00 | 0.00 | 0.00 | 78 | 1012.8 |
| 20260903165916 | 83 | 225 | 4.0 | 6.0 | 0.00 | 0.00 | 0.00 | 78 | 1012.9 |
| 20260903164916 | 82 | 225 | 4.0 | 7.0 | 0.00 | 0.00 | 0.00 | 78 | 1012.8 |
| 20260903163916 | 82 | 180 | 5.0 | 9.0 | 0.00 | 0.00 | 0.00 | 79 | 1012.9 |
| 20260903162916 | 82 | 180 | 1.0 | 3.0 | 0.00 | 0.00 | 0.00 | 81 | 1013.0 |
| 20260903161936 | 81 | 0.0 | 2.0 | 0.00 | 0.00 | 0.00 | 81 | 1013.0 | |
| 20260903160916 | 81 | 203 | 5.0 | 6.0 | 0.00 | 0.00 | 0.00 | 81 | 1013.0 |
| 20260903155916 | 81 | 158 | 3.0 | 6.0 | 0.00 | 0.00 | 0.00 | 81 | 1013.1 |
| 20260903154936 | 81 | 135 | 3.0 | 7.0 | 0.00 | 0.00 | 0.00 | 81 | 1013.0 |
| 20260903153916 | 81 | 180 | 3.0 | 5.0 | 0.00 | 0.00 | 0.00 | 82 | 1012.9 |
| 20260903152916 | 81 | 203 | 4.0 | 7.0 | 0.00 | 0.00 | 0.00 | 83 | 1012.9 |
| 20260903151915 | 80 | 113 | 5.0 | 9.0 | 0.00 | 0.00 | 0.00 | 83 | 1012.9 |
| 20260903150916 | 80 | 158 | 3.0 | 7.0 | 0.00 | 0.00 | 0.00 | 85 | 1012.8 |
| 20260903145915 | 79 | 180 | 8.0 | 12.0 | 0.00 | 0.00 | 0.00 | 86 | 1012.9 |
| 20260903144916 | 78 | 135 | 5.0 | 8.0 | 0.00 | 0.00 | 0.00 | 86 | 1012.9 |
| 20260903143916 | 78 | 135 | 4.0 | 6.0 | 0.00 | 0.00 | 0.00 | 86 | 1013.0 |
| 20260903142916 | 78 | 135 | 5.0 | 9.0 | 0.00 | 0.00 | 0.00 | 87 | 1013.0 |
| 20260903141916 | 78 | 0 | 8.0 | 11.0 | 0.00 | 0.00 | 0.00 | 87 | 1012.9 |
| 20260903140916 | 77 | 0 | 7.0 | 9.0 | 0.00 | 0.00 | 0.00 | 88 | 1013.0 |
| 20260903135936 | 77 | 135 | 6.0 | 8.0 | 0.00 | 0.00 | 0.00 | 88 | 1013.0 |
| 20260903134915 | 77 | 158 | 3.0 | 5.0 | 0.00 | 0.00 | 0.00 | 89 | 1013.0 |
| 20260903133936 | 77 | 0 | 4.0 | 7.0 | 0.00 | 0.00 | 0.00 | 89 | 1013.1 |
| 20260903132915 | 77 | 135 | 5.0 | 7.0 | 0.00 | 0.00 | 0.00 | 89 | 1013.0 |
| 20260903131915 | 77 | 135 | 3.0 | 6.0 | 0.00 | 0.00 | 0.00 | 89 | 1013.0 |
| 20260903130915 | 76 | 180 | 6.0 | 9.0 | 0.00 | 0.00 | 0.00 | 89 | 1012.9 |
| 20260903125915 | 76 | 0 | 6.0 | 9.0 | 0.00 | 0.00 | 0.00 | 89 | 1012.8 |
| 20260903124915 | 76 | 158 | 5.0 | 7.0 | 0.00 | 0.00 | 0.00 | 89 | 1012.7 |
| 20260903123915 | 76 | 135 | 5.0 | 6.0 | 0.00 | 0.00 | 0.00 | 89 | 1012.6 |
| 20260903122915 | 76 | 135 | 4.0 | 6.0 | 0.00 | 0.00 | 0.00 | 89 | 1012.5 |
| 20260903121936 | 76 | 135 | 4.0 | 8.0 | 0.00 | 0.00 | 0.00 | 89 | 1012.4 |
| 20260903120935 | 76 | 0 | 7.0 | 10.0 | 0.00 | 0.00 | 0.00 | 89 | 1012.4 |
| 20260903115915 | 76 | 158 | 5.0 | 8.0 | 0.00 | 0.00 | 0.00 | 89 | 1012.4 |
| 20260903114915 | 76 | 135 | 3.0 | 5.0 | 0.00 | 0.00 | 0.00 | 89 | 1012.5 |
| 20260903113915 | 76 | 135 | 4.0 | 7.0 | 0.00 | 0.00 | 0.00 | 89 | 1012.5 |
| 20260903112915 | 76 | 180 | 3.0 | 5.0 | 0.00 | 0.00 | 0.00 | 88 | 1012.4 |
| 20260903111915 | 77 | 135 | 5.0 | 7.0 | 0.00 | 0.00 | 0.00 | 87 | 1012.3 |
| 20260903110915 | 78 | 135 | 6.0 | 10.0 | 0.00 | 0.00 | 0.00 | 84 | 1012.2 |
| 20260903105917 | 78 | 135 | 5.0 | 9.0 | 0.00 | 0.00 | 0.00 | 84 | 1012.1 |
| 20260903104917 | 78 | 135 | 6.0 | 8.0 | 0.00 | 0.00 | 0.00 | 84 | 1012.1 |
| 20260903103917 | 78 | 135 | 5.0 | 7.0 | 0.00 | 0.00 | 0.00 | 84 | 1012.1 |
| 20260903102917 | 78 | 135 | 6.0 | 9.0 | 0.00 | 0.00 | 0.00 | 84 | 1012.1 |
| 20260903101917 | 78 | 135 | 11.0 | 12.0 | 0.00 | 0.00 | 0.00 | 83 | 1012.1 |
| 20260903100917 | 78 | 135 | 5.0 | 10.0 | 0.00 | 0.00 | 0.00 | 83 | 1012.0 |
| 20260903095917 | 79 | 0 | 8.0 | 15.0 | 0.00 | 0.00 | 0.00 | 82 | 1012.0 |
| 20260903094917 | 79 | 135 | 8.0 | 14.0 | 0.00 | 0.00 | 0.00 | 81 | 1012.0 |
| 20260903093917 | 79 | 0 | 9.0 | 12.0 | 0.00 | 0.00 | 0.00 | 80 | 1012.0 |
| 20260903092917 | 79 | 0 | 5.0 | 9.0 | 0.00 | 0.00 | 0.00 | 79 | 1011.9 |
| 20260903091917 | 79 | 0 | 5.0 | 9.0 | 0.00 | 0.00 | 0.00 | 79 | 1012.1 |
| 20260903090917 | 79 | 0 | 4.0 | 8.0 | 0.00 | 0.00 | 0.00 | 80 | 1012.3 |
| 20260903085917 | 79 | 135 | 5.0 | 7.0 | 0.00 | 0.00 | 0.00 | 80 | 1012.4 |
| 20260903084917 | 79 | 135 | 3.0 | 5.0 | 0.00 | 0.00 | 0.00 | 79 | 1012.2 |
| 20260903083917 | 79 | 135 | 4.0 | 6.0 | 0.00 | 0.00 | 0.00 | 79 | 1012.2 |
| 20260903082937 | 79 | 135 | 4.0 | 6.0 | 0.00 | 0.00 | 0.00 | 79 | 1012.3 |
| 20260903081917 | 79 | 113 | 4.0 | 6.0 | 0.00 | 0.00 | 0.00 | 79 | 1012.2 |
| 20260903080917 | 79 | 135 | 9.0 | 12.0 | 0.00 | 0.00 | 0.00 | 78 | 1012.2 |
| 20260903075917 | 79 | 0 | 9.0 | 13.0 | 0.00 | 0.00 | 0.00 | 77 | 1012.1 |
| 20260903074917 | 79 | 0 | 7.0 | 10.0 | 0.00 | 0.00 | 0.00 | 77 | 1012.1 |
| 20260903073917 | 79 | 135 | 5.0 | 8.0 | 0.00 | 0.00 | 0.00 | 76 | 1012.2 |
| 20260903072916 | 79 | 0 | 9.0 | 12.0 | 0.00 | 0.00 | 0.00 | 75 | 1012.2 |
| 20260903071917 | 80 | 135 | 5.0 | 7.0 | 0.00 | 0.00 | 0.00 | 75 | 1012.2 |
| 20260903070917 | 80 | 0 | 8.0 | 11.0 | 0.00 | 0.00 | 0.00 | 74 | 1012.3 |
| 20260903065916 | 80 | 0 | 7.0 | 9.0 | 0.00 | 0.00 | 0.00 | 74 | 1012.3 |
| 20260903064917 | 80 | 0 | 5.0 | 9.0 | 0.00 | 0.00 | 0.00 | 73 | 1012.3 |
| 20260903063917 | 80 | 135 | 4.0 | 7.0 | 0.00 | 0.00 | 0.00 | 73 | 1012.3 |
| 20260903062916 | 81 | 135 | 3.0 | 6.0 | 0.00 | 0.00 | 0.00 | 72 | 1012.4 |
| 20260903061917 | 81 | 113 | 5.0 | 7.0 | 0.00 | 0.00 | 0.00 | 71 | 1012.4 |
| 20260903060916 | 81 | 135 | 5.0 | 7.0 | 0.00 | 0.00 | 0.00 | 71 | 1012.6 |
| 20260903055917 | 82 | 135 | 11.0 | 15.0 | 0.00 | 0.00 | 0.00 | 70 | 1012.8 |
| 20260903054916 | 82 | 135 | 7.0 | 9.0 | 0.00 | 0.00 | 0.00 | 69 | 1012.8 |
| 20260903053916 | 82 | 135 | 11.0 | 16.0 | 0.00 | 0.00 | 0.00 | 68 | 1012.8 |
| 20260903052946 | 83 | 135 | 10.0 | 11.0 | 0.00 | 0.00 | 0.00 | 67 | 1012.8 |
| 20260903052216 | 83 | 0 | 11.0 | 13.0 | 0.00 | 0.00 | 0.00 | 67 | 1012.8 |
| 20260903051216 | 84 | 0 | 7.0 | 9.0 | 0.00 | 0.00 | 0.00 | 66 | 1012.7 |
| 20260903050216 | 84 | 0 | 12.0 | 15.0 | 0.00 | 0.00 | 0.00 | 65 | 1012.6 |
| 20260903045216 | 84 | 0 | 6.0 | 10.0 | 0.00 | 0.00 | 0.00 | 65 | 1012.6 |
| 20260903044216 | 85 | 0 | 7.0 | 11.0 | 0.00 | 0.00 | 0.00 | 64 | 1012.6 |
| 20260903043216 | 85 | 0 | 7.0 | 8.0 | 0.00 | 0.00 | 0.00 | 64 | 1012.6 |
| 20260903042216 | 85 | 0 | 11.0 | 16.0 | 0.00 | 0.00 | 0.00 | 64 | 1012.6 |
| 20260903041216 | 85 | 0 | 8.0 | 10.0 | 0.00 | 0.00 | 0.00 | 64 | 1012.7 |
| 20260903040216 | 86 | 135 | 6.0 | 9.0 | 0.00 | 0.00 | 0.00 | 63 | 1012.7 |
| 20260903035236 | 86 | 0 | 10.0 | 13.0 | 0.00 | 0.00 | 0.00 | 62 | 1012.7 |
| 20260903034236 | 86 | 0 | 6.0 | 9.0 | 0.00 | 0.00 | 0.00 | 62 | 1012.7 |
| 20260903033216 | 87 | 0 | 8.0 | 10.0 | 0.00 | 0.00 | 0.00 | 61 | 1012.6 |
| 20260903032216 | 87 | 0 | 7.0 | 13.0 | 0.00 | 0.00 | 0.00 | 61 | 1012.6 |
| 20260903031216 | 87 | 0 | 6.0 | 9.0 | 0.00 | 0.00 | 0.00 | 61 | 1012.6 |
| 20260903030216 | 88 | 0 | 6.0 | 8.0 | 0.00 | 0.00 | 0.00 | 61 | 1012.6 |
| 20260903025216 | 88 | 0 | 4.0 | 7.0 | 0.00 | 0.00 | 0.00 | 61 | 1012.4 |
| 20260903024216 | 89 | 135 | 4.0 | 6.0 | 0.00 | 0.00 | 0.00 | 61 | 1012.3 |
| 20260903023216 | 89 | 135 | 5.0 | 7.0 | 0.00 | 0.00 | 0.00 | 61 | 1012.1 |
| 20260903022216 | 89 | 0 | 7.0 | 9.0 | 0.00 | 0.00 | 0.00 | 60 | 1012.0 |
| 20260903021215 | 89 | 0 | 7.0 | 13.0 | 0.00 | 0.00 | 0.00 | 60 | 1011.8 |
| 20260903020216 | 90 | 0 | 7.0 | 12.0 | 0.00 | 0.00 | 0.00 | 59 | 1011.6 |
| 20260903015215 | 90 | 0 | 5.0 | 10.0 | 0.00 | 0.00 | 0.00 | 59 | 1011.5 |
| 20260903014215 | 90 | 0 | 7.0 | 12.0 | 0.00 | 0.00 | 0.00 | 58 | 1011.4 |
| 20260903013216 | 91 | 0 | 9.0 | 14.0 | 0.00 | 0.00 | 0.00 | 57 | 1011.2 |
| 20260903012215 | 92 | 0 | 6.0 | 8.0 | 0.00 | 0.00 | 0.00 | 55 | 1011.3 |
| 20260903011236 | 92 | 0 | 5.0 | 7.0 | 0.00 | 0.00 | 0.00 | 54 | 1011.1 |
| 20260903010216 | 93 | 0 | 9.0 | 13.0 | 0.00 | 0.00 | 0.00 | 53 | 1011.0 |
| 20260903005216 | 94 | 0 | 6.0 | 10.0 | 0.00 | 0.00 | 0.00 | 50 | 1010.9 |
| 20260903004215 | 95 | 0 | 4.0 | 7.0 | 0.00 | 0.00 | 0.00 | 48 | 1010.8 |
| 20260903003215 | 95 | 0 | 5.0 | 9.0 | 0.00 | 0.00 | 0.00 | 47 | 1010.9 |
| 20260903002236 | 95 | 0 | 5.0 | 9.0 | 0.00 | 0.00 | 0.00 | 46 | 1010.9 |
| 20260903001256 | 96 | 0 | 8.0 | 12.0 | 0.00 | 0.00 | 0.00 | 46 | 1010.8 |
| 20260903000215 | 96 | 0 | 5.0 | 9.0 | 0.00 | 0.00 | 0.00 | 45 | 1010.8 |
| 20260902235215 | 96 | 0 | 9.0 | 13.0 | 0.00 | 0.00 | 0.00 | 44 | 1010.7 |
| 20260902234215 | 97 | 0 | 9.0 | 11.0 | 0.00 | 0.00 | 0.00 | 44 | 1010.8 |
| 20260902233215 | 97 | 0 | 7.0 | 9.0 | 0.00 | 0.00 | 0.00 | 43 | 1010.8 |
| 20260902232215 | 97 | 0 | 4.0 | 6.0 | 0.00 | 0.00 | 0.00 | 43 | 1010.8 |
| 20260902231215 | 97 | 0 | 7.0 | 11.0 | 0.00 | 0.00 | 0.00 | 43 | 1010.7 |
| 20260902230215 | 97 | 0 | 7.0 | 11.0 | 0.00 | 0.00 | 0.00 | 43 | 1010.9 |
| 20260902225215 | 97 | 0 | 4.0 | 7.0 | 0.00 | 0.00 | 0.00 | 43 | 1010.8 |
| 20260902224215 | 97 | 0 | 8.0 | 11.0 | 0.00 | 0.00 | 0.00 | 43 | 1010.9 |
| 20260902223215 | 97 | 0 | 7.0 | 11.0 | 0.00 | 0.00 | 0.00 | 43 | 1010.9 |